Regional Weather Roundup
Issued by NWS Huntsville, AL

Current Version | Previous Version | Text Only | Print | Product List | Glossary On
Versions: 1 2 3 4 5 6 7 8 9 10 11 12 13 14 15 16 17 18 19 20 21 22 23 24 25 26 27
000
ASUS44 KHUN 232210
RWRHUN

WEATHER ROUNDUP FOR THE TENNESSEE VALLEY
NATIONAL WEATHER SERVICE HUNTSVILLE AL
500 PM CDT TUE MAY 23 2017

ALZ001>004-232300-
NORTHWEST ALABAMA

CITY           SKY/WX    TMP DP  RH WIND       PRES   REMARKS
COURTLAND HCN    N/A     75 N/A N/A W7          N/A
RUSSELLVILLE     N/A     75 N/A N/A MISG        N/A
SHOALS AIRPORT PTSUNNY   77  59  53 W10       29.69S
SHOALS TVA RES   N/A     75 N/A N/A MISG        N/A
$$

ALZ005>007-016-232300-
NORTH CENTRAL ALABAMA

CITY           SKY/WX    TMP DP  RH WIND       PRES   REMARKS
CULLMAN AG STN   N/A     70 N/A N/A SW5         N/A
DECATUR AP     CLOUDY    77  59  53 W9        29.67F
HUNTSVILLE AP  CLOUDY    74  68  81 SW10      29.66F THUNDER
MERIDIANVILLE  CLOUDY    73  61  64 W6        29.67S
VINEMONT AP    RAIN      66  64  93 CALM      29.71F
$$

ALZ008>010-232300-
NORTHEAST ALABAMA

CITY           SKY/WX    TMP DP  RH WIND       PRES   REMARKS
ALBERTVILLE    CLOUDY    70  70 100 W6        29.68S
FORT PAYNE       N/A     73  64  73 S7        29.67F
SCOTTSBORO AP  LGT RAIN  70  68  94 S7        29.67F
SCOTTSBORO HCN   N/A     70 N/A N/A MISG        N/A
VALLEY HEAD      N/A     72 N/A N/A MISG        N/A
$$

TNZ076-096-097-232300-
SOUTHEASTERN MIDDLE TENNESSEE

CITY           SKY/WX    TMP DP  RH WIND       PRES   REMARKS
TULLAHOMA      PTSUNNY   73  63  68 SW5       29.68F
WINCHESTER     MOSUNNY   75  63  64 VRB5        N/A
$$

...SURROUNDING SITES...

CITY           SKY/WX    TMP DP  RH WIND       PRES   REMARKS
ATLANTA        PTSUNNY   72  65  78 S5        29.70F
ANNISTON       PTSUNNY   73  64  73 SW5       29.67F
BIRMINGHAM     LGT RAIN  70  67  90 W14       29.71S
CHATTANOOGA    CLOUDY    74  62  66 NW6       29.66F
CORINTH        PTSUNNY   77  55  47 W10       29.68F
DALTON         PTSUNNY   73  64  73 CALM      29.66F
GADSDEN        TSTM      68  67  96 CALM      29.68S FOG
GOLDEN TRNGL   NOT AVBL
HALEYVILLE     FAIR      75  63  66 VRB7      29.70F
JACKSON TN     CLOUDY    79  52  38 NW10      29.68F
MEMPHIS        MOSUNNY   80  54  40 SW6       29.69F
NASHVILLE      PTSUNNY   79  56  45 W7        29.66F
OXFORD MS      FAIR      75  55  50 NW8       29.72F
ROME           CLOUDY    75  66  73 W5        29.65F
SELMER         SUNNY     75  57  53 VRB6G12   29.68F
TUPELO         CLOUDY    78  60  53 VRB5      29.68F
TUSCALOOSA     LGT RAIN  70  68  93 CALM      29.69S
$$

...GULF COAST WEATHER...

CITY           SKY/WX    TMP DP  RH WIND       PRES   REMARKS
GULFPORT       SUNNY     82  72  71 SW12G21   29.69F
PASCAGOULA     MOSUNNY   81  69  67 SW14G23   29.69F
MOBILE         CLOUDY    80  70  71 SW20G28   29.69F THUNDER
GULF SHORES    MOCLDY    80  72  75 MISG      29.72F
PENSACOLA      PTSUNNY   82  70  66 SW14G28   29.71F
DESTIN         MOSUNNY   84  77  79 W16G25    29.72F HX  94
APPALACHICOLA  CLOUDY    80  75  84 W14       29.77S
$$





USA.gov is the U.S. government's official web portal to all federal, state and local government web resources and services.